METEOR 2-11 DEB

Satellite information

Favourite Embed

Satellite Type and Status

DEBRISIN ORBIT

Key statistics

Satellite METEOR 2-11 DEB at a glance.

Uptime

15137

Days in orbit

Revolutions

≈ 14.0

Per day

Orbit

LEO

Low Earth Orbit

Inclination

82.5

Latest

Satellite identification and parameters

Extended collection of information and parameters for METEOR 2-11 DEB.

Object identification

Identified? True

Debris? True

Object name: METEOR 2-11 DEB

International designator: 1984-072AA

Object number (NORAD): 60005

Object ID (CCSDS): 60005

Country: COMMONWEALTH OF INDEPENDENT STATES (CIS)

Current information (Y/N): Y

RCS size: SMALL

Orbital parameters

Period: 102.855 minutes

Inclination: 82.5186 deg

SMA: 7271.831 km

Apoapsis: 910.987 km

Periapsis: 876.405 km

RAAN: 161.2079 deg

Eccentricy: 0.0023778

Argument of periapsis: 168.2925 deg

Mean anomaly: 191.8802 deg

Mean motion: 14.00029324 rev/day

Mean motion (dot): 0.00005324 rev/day2

B* drag term: 0.0035996 1/REarth

Two-line elements (TLE)

Creation date: Dec. 4, 2025, 9:36 p.m.

Reference frame: TEME

Reference center: EARTH

Epoch: Dec. 4, 2025, 5:33 a.m. UTC

TLE line 0: 0 METEOR 2-11 DEB

TLE line 1: 1 60005U 84072AA 25338.23167730 .00005324 00000-0 35996-2 0 9990

TLE line 2: 2 60005 82.5186 161.2079 0023778 168.2925 191.8802 14.00029324409635

Live tracking on map

Real-time ground track for satellite METEOR 2-11 DEB.

In-orbit conjunctions

A list of the most updated potential collisions computed for object METEOR 2-11 DEB.

Target Orbit TCA Probability of collision Miss distance Type
COBE DEB SSO 2025-12-04 13:17:21 0.0004503189 101.0 (m) DEBRIS
SL-8 R/B LEO 2025-09-06 10:17:00 0.0001161283 789.0 (m) ROCKET BODY
COSMOS 1275 DEB LEO 2025-06-07 17:55:09 0.0001086088 199.0 (m) DEBRIS
DMSP 5D-2 F13 DEB SSO 2025-02-01 05:23:41 0.0001276899 215.0 (m) DEBRIS
SL-16 DEB LEO 2024-12-01 15:13:22 0.000174815 329.0 (m) DEBRIS

Associated space launch

Second generation soviet meteorological satellite

METEOR 2-11 DEB was lifted into orbit during the mission ‘Tsiklon-3 | Meteor-2 11’, on board a Tsiklon-3 space rocket.

The launch took place on July 5, 1984, 3:35 a.m. from 32/2.

For more information about the launch, click the button.

Launch to space Tsiklon-3 | Meteor-2 11
Tsiklon-3 | Meteor-2 11

Agency: N/A

Status: Launch Successful

Launch date: July 5, 1984, 3:35 a.m. UTC

Rocket: Tsiklon-3

Launch pad: 32/2

Location: Plesetsk Cosmodrome, Russian Federation

...

Latest news about this satellite

There are no fresh news available about this satellite. Check back as we update our databases every day.


Newsletter sign-up

Weekly statistics, charts and insights to help you stay on top of the space industry.